#timestamp,LO_Frequency,Hit,StdDev 
1580288415.8,286047002.6,N
1580288435.6,286047001.9,N
1580288455.4,286047004.2,N
1580288475.3,286047003.3,N
1580288495.1,286047004.3,N
1580288515.8,286047004.4,N
1580288535.7,286046999.7,N
1580288555.5,286047001.9,N
1580288575.4,286047003.5,N
1580288595.2,286047003.4,N
1580288615.0,286047002.3,N
1580288615.9,286047002.3,N
1580288635.8,286046996.9,N
1580288655.6,286046999.3,N
1580288675.5,286047002.6,N
1580288695.3,286047001.8,N
1580288715.1,286047002.5,N
1580288735.9,286047003.2,N
1580288755.7,286047003.2,N
1580288775.5,286047002.4,N
1580288795.4,286047001.2,N
1580288815.2,286046999.7,N
1580288835.1,286046999.7,N
1580288836.0,286046999.7,N
1580288855.8,286047001.4,N
1580288875.6,286047004.2,N
1580288895.5,286047000.1,N
1580288915.3,286046998.1,N
1580288935.2,286046998.3,N
1580288955.9,286046998.1,N
1580288975.7,286046997.7,N
1580288995.6,286046997.4,N
1580289015.4,286046998.2,N
1580289035.2,286046996.8,N
1580289055.1,286046997.5,N
1580289056.0,286046997.5,N
1580289075.8,286046996.9,N
1580289095.7,286046996.9,N
1580289115.5,286046999.6,N
1580289135.3,286046997.5,N
1580289155.2,286046995.1,N
1580289175.0,286046998.0,N
1580289175.9,286046998.0,N
1580289195.7,286046995.1,N
1580289215.6,286046993.5,N
1580289235.4,286046993.8,N
1580289255.3,286046993.4,N
1580289275.1,286046994.1,N
1580289276.0,286046994.1,N
1580289295.8,286046994.3,N
1580289315.7,286046992.3,Y
1580289335.5,286046994.1,P
1580289355.4,286046994.4,P
1580289375.2,286046994.1,P
1580289395.0,286046991.8,Y
1580289395.9,286046991.8,P
1580289415.8,286046997.0,N
1580289435.6,286046997.0,N
1580289455.4,286046996.7,N
1580289475.3,286046999.1,N
1580289495.1,286046998.4,N
1580289515.9,286046998.7,N
1580289535.7,286046998.2,N
1580289555.5,286046999.4,N
1580289575.4,286046996.6,N
1580289595.2,286046996.8,N
1580289615.1,286046997.2,N
1580289616.0,286046997.2,N
1580289635.8,286046997.9,N
1580289655.6,286046995.6,N
1580289675.5,286046994.3,Y
1580289695.3,286046995.2,P
1580289715.2,286046994.1,P
1580289735.9,286046994.3,P
1580289755.9,286046992.4,Y
1580289775.7,286046995.6,P
1580289795.6,286046995.4,P
1580289815.4,286046996.1,P
1580289835.3,286046996.3,Y
1580289855.1,286046998.8,P
1580289856.0,286046998.8,N
1580289875.8,286046999.4,N
1580289895.7,286046999.2,N
1580289915.5,286046997.6,N
1580289935.3,286046997.6,N
1580289955.2,286046997.6,N
1580289975.0,286046997.2,N
1580289975.9,286046997.2,N
1580289995.8,286046996.5,Y
1580290015.6,286046998.8,P
1580290035.4,286047000.9,N
1580290055.3,286047001.1,N
1580290075.1,286047000.8,N
1580290095.9,286047000.4,N
1580290115.7,286046998.8,N
1580290135.5,286046996.7,N
1580290155.4,286046997.7,N
1580290175.2,286046998.8,N
1580290195.0,286046998.5,N
1580290195.9,286046998.5,N
1580290215.8,286047000.8,N
1580290235.6,286046998.8,N
1580290255.5,286046999.2,N
1580290275.3,286046996.8,N
1580290295.1,286046997.7,N
1580290315.9,286046997.3,N
1580290335.7,286046997.2,N
1580290355.5,286046995.1,Y
1580290375.4,286046998.9,P
1580290395.2,286047001.1,P
1580290415.1,286046999.7,N
1580290416.0,286046999.7,N
1580290435.8,286046998.6,N
1580290455.6,286046999.5,N
1580290475.5,286046999.4,N
1580290495.3,286046996.6,Y
1580290515.2,286046999.1,P
1580290535.9,286046996.5,P
1580290555.7,286046997.0,N
1580290575.6,286047001.1,N
1580290595.4,286046999.7,N
1580290615.3,286047001.9,N
1580290635.1,286047004.0,N
1580290636.0,286047004.0,N
1580290655.8,286047002.9,N
1580290675.7,286047005.8,N
1580290695.5,286047003.7,N
1580290715.3,286047002.1,N
1580290735.2,286046999.9,N
1580290755.0,286046998.4,N
1580290755.9,286046998.4,N
1580290775.8,286046998.3,N
1580290795.6,286047000.2,N
1580290815.4,286047000.0,N
1580290835.3,286047004.2,N
1580290855.1,286047004.1,N
1580290875.9,286047003.1,N
1580290895.7,286047002.1,N
1580290915.5,286047004.0,N
1580290935.4,286047003.8,N
1580290955.2,286047001.7,N
1580290975.0,286047000.6,N
1580290975.9,286047000.6,N
1580290995.8,286046998.8,N
1580291015.6,286046996.8,N
1580291035.5,286046997.9,N
1580291055.3,286046996.9,N
1580291075.1,286046996.8,N
1580291095.9,286046996.8,N
1580291115.7,286046998.7,N
1580291135.6,286047000.6,N
1580291155.4,286047000.3,N
1580291175.2,286047002.4,N
1580291195.1,286047002.6,N
1580291196.0,286047002.6,N
1580291215.8,286047004.4,N
1580291235.6,286047001.4,N
1580291255.5,286047002.6,N
1580291275.3,286047001.3,N
1580291295.2,286047001.8,N
1580291315.9,286047003.6,N
1580291335.7,286047003.3,N
1580291355.6,286047001.3,N
1580291375.4,286047001.8,N
1580291395.3,286047002.2,N
1580291415.1,286047003.9,N
1580291416.0,286047003.9,N
1580291435.8,286047003.6,N
1580291455.7,286047003.7,N
1580291475.5,286047004.1,N
1580291495.3,286047003.3,N
1580291515.2,286047005.6,N
1580291535.0,286047005.6,N
1580291535.9,286047005.6,N
1580291555.8,286047003.1,N
1580291575.6,286047005.7,N
1580291595.4,286047003.1,N
1580291615.3,286047003.0,N
1580291635.1,286047005.3,N
1580291655.9,286047007.6,Y
1580291675.7,286047005.9,P
1580291695.5,286047003.8,N
1580291715.4,286047004.4,P
1580291735.2,286047004.4,Y
1580291755.0,286046998.1,P
1580291755.9,286046998.1,N
1580291775.8,286047001.0,N
1580291795.6,286047000.8,N
1580291815.5,286047000.9,N
1580291835.3,286047002.7,N
1580291855.1,286047004.2,N
1580291875.9,286047004.8,N
1580291895.7,286047006.9,N
1580291915.5,286047006.9,N
1580291935.4,286047007.4,N
1580291955.2,286047007.6,N
1580291975.1,286047003.3,N
1580291976.0,286047003.3,N
1580291995.8,286047003.1,N
